Weather History for Seretse Khama, Botswana

Change the Weather History Date:

Thursday, July 4, 2013

  Actual Average Record
Temperature  
Mean Temperature 60 °F -  
Max Temperature 77 °F 71 °F 78 °F (1996)
Min Temperature 42 °F 40 °F 30 °F (1998)
Degree Days  
Heating Degree Days 6    
Growing Degree Days 10 (Base 50)    
Moisture  
Dew Point 31 °F    
Average Humidity 32    
Maximum Humidity 57    
Minimum Humidity 18    
Precipitation  
Precipitation 0.00 in - - ()
Sea Level Pressure  
Sea Level Pressure 30.14 in    
Wind  
Wind Speed 8 mph ()    
Max Wind Speed 16 mph    
Max Gust Speed -    
Averages and records for this station are not official NWS values.
T = Trace of Precipitation, MM = Missing Value Source: Averaged Metar Reports

Daily Weather History Graph

Daily Weather History Graph

Search for Another Location

Airport:

Trip Planner

Search our weather history database for the weather conditions in past years. The results will help you decide how hot, cold, wet, or windy it might be!

Date:

Astronomy

Jul. 04, 2013 Rise Set
Actual Time 7:01 AM CAT 5:40 PM CAT
Civil Twilight 6:36 AM CAT 6:05 PM CAT
Nautical Twilight 6:08 AM CAT 6:33 PM CAT
Astronomical Twilight 5:40 AM CAT 7:01 PM CAT
Moon 3:39 AM CAT (7/4) 2:48 PM CAT (7/4)
Length of Visible Light 11h 29m
Length of Day
10h 39m
Waning Crescent, 13% of the Moon is Illuminated
Jul 4
Waning Crescent
Jul 8
New
Jul 16
First Quarter
Jul 22
Full
Jul 29
Last Quarter

Hourly Weather History & Observations

Time (CAT) Temp. Windchill Dew Point Humidity Pressure Visibility Wind Dir Wind Speed Gust Speed Precip Events Conditions
12:00 AM 53.6 °F - 24.8 °F 33% 30.09 in - SSE 8.1 mph - N/A   Clear
1:00 AM 53.6 °F - 26.6 °F 35% 30.09 in - SSE 6.9 mph - N/A   Clear
2:00 AM 53.6 °F - 26.6 °F 35% 30.09 in - SSE 8.1 mph - N/A   Clear
4:00 AM 50.0 °F - 26.6 °F 40% 30.09 in - SSE 9.2 mph - N/A   Clear
5:00 AM 50.0 °F - 26.6 °F 40% 30.12 in - SSE 9.2 mph - N/A   Clear
6:00 AM 42.8 °F 41.1 °F 28.4 °F 57% 30.15 in - East 3.5 mph - N/A   Clear
7:00 AM 44.6 °F 43.1 °F 26.6 °F 49% 30.15 in - South 3.5 mph - N/A   Clear
8:00 AM 51.8 °F - 26.6 °F 38% 30.18 in - SSE 6.9 mph - N/A   Clear
9:00 AM 59.0 °F - 26.6 °F 29% 30.18 in - East 6.9 mph - N/A   Clear
10:00 AM 64.4 °F - 28.4 °F 26% 30.21 in - ENE 6.9 mph - N/A   Clear
11:00 AM 68.0 °F - 28.4 °F 23% 30.21 in - NE 13.8 mph - N/A   Clear
12:00 PM 71.6 °F - 28.4 °F 20% 30.18 in - NNE 12.7 mph - N/A   Clear
1:00 PM 75.2 °F - 30.2 °F 19% 30.15 in - NNE 12.7 mph - N/A   Clear
2:00 PM 77.0 °F - 30.2 °F 18% 30.12 in - NE 13.8 mph - N/A   Clear
3:00 PM 77.0 °F - 30.2 °F 18% 30.09 in - NE 15.0 mph - N/A   Clear
4:00 PM 75.2 °F - 32.0 °F 21% 30.09 in - NE 13.8 mph - N/A   Clear
5:00 PM 73.4 °F - 32.0 °F 22% 30.09 in - ENE 16.1 mph - N/A   Clear
6:00 PM 68.0 °F - 33.8 °F 28% 30.12 in - NE 11.5 mph - N/A   Clear
7:00 PM 68.0 °F - 35.6 °F 30% 30.12 in - NE 11.5 mph - N/A   Clear
8:00 PM 66.2 °F - 35.6 °F 32% 30.15 in - NE 11.5 mph - N/A   Clear
9:00 PM 66.2 °F - 39.2 °F 37% 30.15 in - NE 12.7 mph - N/A   Clear
10:00 PM 64.4 °F - 39.2 °F 40% 30.18 in - ENE 15.0 mph - N/A   Clear
11:00 PM 62.6 °F - 42.8 °F 48% 30.18 in - NE 5.8 mph - N/A   Clear